Temperature
8 8 8 8 8 8 8 9 9 10 10 11 11 11 11 10 9 8 7 6 6 5 5 5 5 5 5 6 6 6 6 6 6 6 5 5 5 5 5 5 5 5 5 5
8 7 8 8 8 8 8 9 9 9 10 11 11 10 9 10 9 8 7 6 5 5 5 5 5 5 5 5 5 5 5 5 4 4 4 5 4 4 4 4 4 4 4 3
8 7 7 8 9 8 8 8 9 9 10 11 10 10 10 9 8 7 6 5 5 5 4 4 4 4 4 4 4 4 4 4 4 4 4 4 3 3 3 3 3 2 2 2
8 7 7 9 9 9 9 9 9 9 10 10 10 9 8 8 7 7 6 5 5 4 4 4 4 4 4 3 3 4 3 3 3 3 3 2 2 2 2 2 1 1 1 1
7 8 8 9 8 8 8 9 9 9 9 9 9 8 9 7 7 6 6 5 4 4 4 3 3 3 3 3 3 3 3 2 2 2 2 1 1 1 1 1 0 0 -0 -1
7 7 8 9 9 8 9 9 9 9 9 9 8 10 10 7 6 6 5 5 4 4 3 3 3 3 2 2 2 2 2 2 2 1 1 1 1 0 0 -0 -0 -1 -1 -1
7 7 9 9 8 8 9 9 9 8 8 8 9 9 7 6 6 5 5 4 4 3 3 2 2 2 2 2 2 2 2 1 1 1 0 0 0 -0 -0 -0 -1 -1 -1 -2
7 7 8 9 8 9 9 8 8 8 8 7 7 6 6 5 5 4 4 4 3 3 2 2 2 2 2 2 1 1 1 1 1 0 0 -0 -0 -1 -1 -1 -1 -1 -2 -2
8 9 8 7 8 7 7 7 7 7 7 6 6 6 5 5 4 4 4 3 2 2 2 2 1 1 1 1 1 1 1 1 1 0 -0 -0 -1 -1 -1 -1 -1 -2 -2 -2
7 8 8 7 7 6 6 6 6 6 6 6 6 6 5 5 4 4 3 3 2 2 2 1 1 1 1 1 1 1 1 1 0 0 -1 -1 -1 -1 -1 -2 -2 -2 -2 -3
7 8 7 7 6 6 6 6 6 6 6 6 6 5 5 4 4 4 3 3 2 2 2 1 1 1 1 1 1 1 1 1 0 -0 -1 -1 -1 -1 -2 -2 -2 -2 -3 -3
8 7 7 7 5 5 5 5 5 6 6 6 5 5 5 4 4 4 3 3 2 2 2 1 1 1 1 1 1 1 1 0 -0 -0 -1 -1 -1 -2 -2 -2 -2 -3 -3 -3
5 5 5 5 5 5 5 5 5 5 5 5 5 5 4 4 4 3 3 3 2 2 2 2 2 1 1 1 1 1 0 0 -0 -1 -1 -1 -2 -2 -2 -2 -3 -3 -4 -4
4 4 4 4 4 4 4 4 4 4 4 4 4 4 4 3 3 3 3 3 2 2 2 2 1 1 1 1 1 1 0 -0 -0 -1 -1 -1 -2 -2 -2 -3 -3 -4 -4 -4
3 3 3 3 3 3 3 3 3 4 4 4 4 3 3 3 3 3 2 2 2 1 1 1 1 1 1 1 1 0 0 -0 -1 -1 -1 -2 -2 -2 -3 -3 -4 -4 -4 -5
2 2 2 2 2 2 2 2 2 3 3 3 3 3 3 2 2 2 2 2 1 1 1 1 1 1 1 1 0 0 -0 -0 -1 -1 -1 -2 -2 -3 -3 -3 -4 -4 -5 -5
1 1 1 1 1 1 2 2 2 2 2 2 2 2 2 2 2 1 1 1 1 1 1 1 1 1 1 1 0 0 -0 -1 -1 -1 -2 -2 -2 -3 -3 -4 -4 -5 -5 -5
1 1 1 1 1 1 1 1 1 1 2 2 2 2 1 1 1 1 1 1 0 0 1 1 0 0 0 0 0 -0 -0 -1 -1 -2 -2 -2 -3 -3 -3 -4 -4 -5 -5 -6
0 1 1 0 1 1 1 1 1 1 1 1 1 1 1 1 1 0 0 0 0 0 0 0 0 0 0 0 -0 -0 -1 -1 -1 -2 -2 -2 -3 -3 -4 -4 -5 -5 -6 -6
0 0 0 0 0 0 1 1 1 1 1 1 1 0 0 0 -0 -0 -0 -0 0 0 0 -0 -0 -0 -0 -0 -0 -1 -1 -1 -2 -2 -2 -3 -3 -3 -4 -4 -5 -5 -6 -6
-0 0 0 0 0 0 0 0 0 0 0 -0 -0 -0 -0 -0 -0 -1 -1 -0 -0 -1 -1 -1 -1 -0 -1 -1 -1 -1 -1 -2 -2 -2 -2 -3 -3 -4 -4 -5 -5 -5 -6 -6
-1 -0 -0 -0 -0 -0 -0 -0 -0 -0 -1 -1 -1 -1 -1 -1 -1 -1 -1 -1 -1 -1 -1 -1 -1 -1 -1 -1 -1 -1 -2 -2 -2 -2 -3 -3 -3 -4 -4 -5 -5 -5 -6 -6
-1 -1 -1 -1 -1 -1 -1 -1 -1 -1 -1 -1 -1 -1 -1 -1 -1 -1 -1 -1 -1 -1 -1 -1 -1 -1 -1 -2 -2 -2 -2 -2 -2 -3 -3 -3 -4 -4 -4 -5 -5 -6 -6 -6
-1 -1 -1 -1 -2 -1 -1 -1 -2 -2 -2 -2 -2 -2 -2 -2 -2 -2 -2 -2 -2 -2 -2 -2 -2 -2 -2 -2 -2 -2 -2 -2 -3 -3 -3 -3 -4 -4 -5 -5 -5 -6 -6 -6
-2 -2 -2 -2 -2 -2 -2 -2 -2 -2 -2 -2 -2 -2 -2 -2 -2 -2 -2 -2 -2 -2 -2 -2 -2 -2 -2 -2 -2 -2 -2 -3 -3 -3 -3 -4 -4 -4 -5 -5 -6 -6 -6 -7
-2 -2 -3 -3 -3 -3 -3 -3 -3 -3 -3 -3 -3 -3 -3 -3 -3 -3 -3 -3 -3 -2 -2 -2 -3 -3 -3 -2 -3 -3 -3 -3 -3 -3 -4 -4 -4 -5 -5 -5 -6 -6 -6 -7
-3 -3 -3 -3 -3 -3 -3 -3 -3 -3 -3 -3 -3 -3 -3 -3 -3 -3 -3 -3 -3 -3 -3 -3 -3 -3 -3 -3 -3 -3 -3 -3 -4 -4 -4 -4 -5 -5 -5 -6 -6 -6 -6 -7
Wind_Speed
2 3 5 6 10 13 12 9 6 4 5 6 6 6 7 6 5 4 2 1 0 1 2 3 3 4 5 5 5 5 6 6 7 7 8 8 9 10 10 11 10 10 11 11
2 2 3 5 9 13 13 13 13 10 10 8 6 5 6 7 6 4 2 1 0 1 1 2 3 3 4 5 5 5 6 7 7 8 9 9 10 10 11 11 11 11 11 11
2 1 2 6 10 14 10 10 10 13 10 6 6 7 7 6 5 4 2 1 1 1 1 1 2 2 3 4 4 6 7 7 7 8 9 9 10 11 11 11 11 12 11 12
2 2 5 0 1 6 11 11 12 11 9 7 8 8 7 6 4 2 1 2 2 1 2 2 2 3 3 4 5 7 7 8 8 8 9 9 10 11 11 10 10 10 11 12
2 3 4 3 3 5 6 5 8 12 11 9 7 6 3 2 1 1 1 2 2 2 3 3 3 4 5 5 6 7 8 7 7 8 9 10 10 10 10 10 10 10 10 10
3 3 3 1 2 3 4 3 2 4 4 4 2 4 1 3 2 2 3 3 3 4 4 4 4 5 6 6 6 7 7 7 8 8 9 9 9 9 9 9 9 9 9 8
5 4 4 1 2 4 4 2 2 2 2 3 3 3 1 2 2 3 3 4 5 5 4 4 5 6 6 6 6 7 8 8 9 9 9 9 9 8 9 9 9 9 9 7
5 6 4 2 4 4 1 2 1 2 3 3 4 3 2 2 3 4 5 5 5 5 5 5 5 6 7 7 7 7 8 9 9 8 8 7 9 8 8 8 8 8 7 6
5 4 2 1 2 1 2 2 3 3 4 4 4 4 3 3 4 5 6 6 6 6 6 5 5 6 8 7 7 8 9 9 9 8 7 7 7 7 6 6 5 5 4 4
4 5 3 3 3 2 2 3 4 4 5 4 5 4 4 4 5 6 6 7 7 7 7 6 6 6 7 8 8 9 9 8 8 7 7 6 5 5 5 4 4 4 3 3
6 4 3 2 1 1 2 3 3 4 4 4 5 5 4 4 5 6 7 7 7 7 7 7 7 7 7 8 9 9 9 8 7 6 6 6 5 4 4 3 2 3 3 2
4 2 2 1 1 3 4 4 5 5 5 4 4 5 5 5 5 6 8 8 8 8 8 8 8 8 8 8 9 9 8 7 6 6 5 5 6 6 7 6 6 5 4 2
2 1 3 4 3 2 5 6 6 6 6 6 5 4 5 5 5 7 8 9 9 9 9 9 8 8 8 8 8 8 8 7 6 6 6 5 5 5 5 5 6 5 4 2
1 1 3 2 3 5 6 6 6 5 5 5 4 4 4 5 6 8 8 9 9 9 9 9 9 8 8 9 8 8 8 7 6 6 5 5 4 4 3 3 3 2 2 1
1 1 3 4 5 5 5 5 5 5 4 4 3 4 5 6 7 7 7 8 9 9 9 9 9 8 8 9 9 9 7 6 6 5 5 4 4 4 3 3 2 2 1 1
2 3 3 4 5 6 5 5 6 6 5 5 4 4 5 5 5 6 8 9 10 10 10 9 9 8 8 9 9 7 6 8 7 6 5 5 4 4 3 3 2 2 2 2
1 2 3 5 6 7 7 6 6 7 6 5 5 4 4 5 6 6 7 8 7 7 8 9 8 8 8 9 9 7 6 8 9 6 5 5 4 4 3 3 3 2 2 3
2 3 4 6 7 8 8 7 6 6 5 4 3 4 6 7 7 7 7 7 7 6 7 7 8 8 8 8 7 6 6 7 6 6 5 5 4 4 3 3 3 3 3 3
2 3 4 5 6 6 6 6 6 5 3 2 3 5 5 6 6 6 7 8 9 8 7 8 11 10 9 9 9 6 7 7 6 5 5 6 5 4 3 3 3 3 3 3
3 4 5 5 5 5 5 5 4 3 2 1 2 3 4 4 5 6 7 7 7 5 6 9 10 8 8 9 10 6 7 7 7 6 5 5 5 4 4 4 4 4 4 4
4 5 5 6 6 5 5 4 3 3 2 1 2 3 3 3 5 6 6 6 4 6 8 11 8 7 8 9 10 7 7 7 7 6 6 5 5 4 4 4 4 4 4 4
4 4 5 5 5 5 5 4 4 3 2 1 1 1 2 3 4 5 5 4 4 9 8 7 7 9 11 11 7 7 7 7 6 5 5 5 5 4 4 4 4 4 4 5
3 4 5 5 5 5 4 4 4 3 2 2 2 2 3 3 4 4 4 3 5 9 8 7 9 14 15 9 7 7 7 7 6 6 5 5 5 4 4 4 4 4 4 5
3 4 4 4 4 4 5 5 5 4 3 3 2 2 2 2 3 3 2 5 8 9 6 9 14 15 14 7 7 7 7 6 6 5 5 5 4 4 4 4 4 4 5 6
3 3 3 4 4 4 4 5 5 4 4 3 3 2 1 2 2 2 3 5 8 8 6 10 14 15 10 6 7 7 6 6 6 5 5 5 5 4 4 4 4 5 5 5
2 2 3 3 3 3 3 4 3 3 4 3 3 2 2 1 1 1 2 4 6 8 6 6 8 9 7 7 7 6 6 6 6 6 5 5 5 4 4 4 5 5 5 6
2 2 2 2 2 3 3 3 4 4 4 4 4 3 3 2 1 1 2 3 4 5 5 5 6 6 6 6 6 6 5 5 5 5 5 4 4 4 4 5 4 4 5 6
Wind_Direction
93 125 165 195 196 197 209 216 224 229 230 227 228 259 288 300 307 307 301 277 5 25 24 18 15 16 16 18 20 24 35 42 44 49 58 65 71 77 81 84 89 94 97 98
126 148 203 227 220 213 220 228 237 252 266 264 268 272 282 291 298 294 287 256 190 59 37 28 24 23 24 30 35 47 57 56 58 63 68 71 76 81 84 86 88 91 94 96
175 166 243 249 227 212 212 217 223 236 244 256 274 282 292 296 292 277 265 227 198 140 83 48 39 39 44 47 59 68 69 69 68 72 75 77 81 84 85 87 89 91 93 96
170 200 236 145 101 209 218 230 227 238 250 261 274 290 289 283 264 248 219 195 172 144 123 105 93 87 84 80 82 81 77 74 75 80 82 83 85 86 87 88 89 90 92 94
197 241 271 272 204 185 199 237 231 235 252 266 282 285 256 176 178 203 173 158 149 141 138 132 120 113 108 98 92 88 83 79 83 89 91 91 89 89 89 91 91 90 90 93
200 243 248 116 118 173 191 213 169 211 241 254 257 269 263 141 149 141 133 136 136 135 134 131 126 127 119 106 97 91 91 90 90 92 95 96 96 96 94 94 94 94 89 90
218 244 270 275 153 164 207 132 142 222 259 250 247 282 350 152 173 157 147 141 140 141 137 133 136 132 119 110 101 102 103 99 95 96 98 101 99 98 100 100 99 96 93 89
208 226 244 128 158 193 5 44 262 282 288 275 272 280 234 205 184 167 157 152 151 146 137 137 142 135 123 117 115 114 110 105 102 102 103 104 104 102 103 107 105 103 100 93
218 233 35 155 203 321 330 288 296 298 299 286 271 258 231 212 193 179 169 163 160 152 142 141 145 142 132 130 130 123 115 110 107 104 102 107 111 114 113 113 112 111 110 106
251 257 252 247 256 288 283 277 291 293 289 270 265 260 238 212 195 183 176 170 165 159 154 150 146 140 137 138 137 130 122 118 116 113 109 108 108 115 118 120 122 126 126 125
241 260 263 221 174 341 328 314 308 307 290 272 264 254 236 215 199 188 178 174 171 170 163 156 150 144 145 147 145 136 130 127 123 119 121 116 106 97 106 103 117 136 137 140
231 223 235 221 14 341 321 313 309 305 298 283 260 252 234 216 199 186 179 173 172 171 165 160 157 152 153 155 152 144 140 138 135 135 132 129 123 107 83 92 100 100 103 107
251 288 270 288 299 337 317 311 306 292 285 282 267 245 226 208 191 183 179 177 177 174 167 164 162 159 160 161 160 156 151 147 146 148 148 147 145 142 133 110 98 95 95 94
216 278 264 280 300 318 312 307 303 294 285 271 259 236 212 197 187 186 185 181 173 168 166 166 165 165 164 164 162 156 151 151 154 155 157 158 159 159 158 162 168 152 101 71
195 283 277 294 301 307 307 304 298 294 294 279 246 222 206 198 194 191 179 169 165 166 169 170 170 168 165 165 163 159 157 158 157 155 156 157 156 158 163 171 182 189 206 216
292 291 284 290 300 307 305 297 289 288 284 272 250 229 212 201 189 178 172 170 173 178 177 176 177 171 167 165 161 160 162 159 157 156 157 159 163 170 177 186 200 218 237 257
262 293 307 305 307 306 301 293 287 285 278 263 248 222 191 176 172 174 178 181 183 181 179 180 176 167 169 169 164 162 159 162 163 161 166 170 175 183 189 198 213 234 249 260
273 291 295 296 298 300 300 300 295 287 275 262 232 197 187 187 189 186 180 173 170 174 183 181 170 166 169 169 166 162 161 163 168 170 171 176 181 186 195 207 220 239 256 263
342 320 311 306 306 300 298 302 302 293 280 237 205 203 203 201 194 185 175 177 183 190 190 179 173 171 173 174 166 163 163 164 166 170 174 178 182 191 201 214 228 242 254 262
2 345 335 329 328 321 315 317 318 316 310 230 202 198 200 198 186 181 184 195 203 194 172 173 173 174 175 174 169 167 168 171 173 174 178 185 192 200 209 221 233 244 254 262
358 351 345 339 336 339 339 338 338 335 334 279 215 212 208 198 186 183 189 205 201 170 169 174 175 176 175 173 172 172 174 176 179 181 185 191 197 206 215 225 235 244 255 264
355 350 346 343 344 348 353 355 355 349 343 324 278 217 197 196 195 201 211 212 186 177 175 178 178 180 178 174 176 177 178 179 182 185 190 194 201 211 220 229 239 247 255 263
354 348 347 348 345 340 348 0 0 351 335 313 283 245 228 222 207 206 216 197 181 184 181 183 185 183 179 177 178 179 181 184 187 191 194 198 206 215 224 233 242 250 258 264
357 354 350 346 349 356 355 351 347 341 333 319 300 270 244 231 230 230 224 191 190 188 189 188 187 185 181 180 180 183 186 188 190 192 195 199 207 216 225 234 244 253 259 266
350 346 348 351 355 350 341 337 338 342 343 337 328 311 278 256 245 237 210 196 193 188 188 191 190 187 184 181 184 188 189 191 190 189 194 201 209 218 227 235 244 255 262 266
339 335 332 329 326 327 329 330 328 328 329 325 321 316 313 315 285 232 212 200 194 190 186 185 185 186 187 184 186 188 188 190 195 197 199 204 214 221 230 238 249 255 262 267
323 322 323 328 333 332 327 321 317 317 316 310 307 303 298 292 275 239 213 198 191 185 182 180 181 184 183 183 183 184 185 188 191 194 197 204 212 223 232 240 250 258 265 269
Height
1457 1459 1460 1460 1462 1465 1465 1462 1462 1458 1461 1458 1460 1462 1463 1463 1463 1462 1462 1461 1460 1458 1457 1455 1454 1453 1451 1450 1448 1446 1445 1443 1441 1440 1439 1438 1438 1437 1437 1437 1438 1439 1440 1441
1459 1461 1461 1461 1460 1461 1462 1461 1461 1461 1460 1456 1459 1461 1460 1460 1459 1459 1459 1458 1457 1456 1455 1453 1452 1451 1450 1448 1447 1446 1444 1442 1441 1440 1440 1439 1438 1438 1438 1438 1439 1440 1441 1442
1457 1461 1460 1456 1452 1455 1457 1456 1457 1458 1455 1455 1457 1457 1457 1457 1456 1456 1456 1455 1454 1453 1452 1451 1450 1449 1448 1447 1446 1445 1444 1443 1442 1441 1440 1440 1440 1439 1440 1440 1441 1442 1443 1444
1458 1460 1460 1449 1450 1450 1452 1452 1454 1453 1453 1454 1455 1455 1454 1454 1454 1453 1453 1452 1451 1451 1450 1450 1449 1448 1447 1446 1446 1445 1444 1443 1443 1442 1442 1442 1442 1442 1442 1443 1444 1444 1445 1447
1457 1454 1449 1447 1449 1450 1451 1449 1449 1451 1451 1452 1453 1452 1451 1451 1451 1451 1450 1450 1449 1449 1448 1448 1448 1447 1447 1446 1446 1445 1445 1444 1444 1444 1444 1444 1444 1444 1445 1446 1447 1447 1448 1450
1457 1455 1449 1446 1448 1449 1451 1447 1448 1449 1449 1450 1451 1448 1448 1449 1448 1448 1448 1447 1447 1447 1447 1447 1447 1446 1446 1446 1446 1446 1446 1446 1446 1446 1446 1447 1447 1447 1448 1449 1450 1451 1451 1453
1455 1453 1445 1445 1448 1450 1450 1446 1448 1448 1448 1448 1448 1448 1448 1447 1446 1446 1446 1445 1445 1445 1446 1446 1446 1446 1446 1446 1446 1446 1447 1447 1448 1448 1449 1449 1450 1451 1451 1452 1453 1454 1454 1455
1451 1451 1448 1446 1447 1447 1446 1447 1447 1447 1447 1447 1446 1445 1445 1444 1444 1443 1443 1443 1444 1444 1444 1445 1445 1446 1446 1446 1447 1447 1448 1449 1449 1450 1451 1452 1453 1453 1454 1455 1455 1456 1457 1457
1446 1446 1445 1446 1446 1447 1446 1446 1446 1446 1445 1444 1443 1443 1442 1442 1441 1441 1441 1442 1442 1443 1444 1444 1445 1446 1446 1447 1447 1448 1449 1450 1451 1453 1454 1455 1455 1456 1457 1457 1458 1458 1458 1458
1445 1443 1444 1445 1445 1445 1444 1444 1444 1443 1442 1442 1441 1440 1439 1439 1439 1439 1439 1440 1441 1442 1442 1443 1444 1445 1446 1447 1448 1450 1451 1452 1453 1455 1456 1456 1457 1458 1458 1459 1459 1459 1459 1459
1442 1442 1442 1442 1443 1443 1443 1442 1442 1441 1440 1439 1438 1437 1436 1436 1436 1437 1437 1438 1439 1440 1441 1442 1444 1445 1446 1448 1449 1451 1452 1454 1455 1456 1457 1458 1458 1459 1459 1459 1460 1459 1459 1458
1438 1440 1441 1441 1441 1441 1441 1440 1439 1438 1437 1436 1435 1434 1434 1433 1434 1434 1435 1436 1437 1438 1440 1441 1443 1445 1446 1448 1450 1452 1453 1454 1456 1457 1458 1459 1459 1459 1459 1459 1459 1459 1458 1457
1439 1439 1440 1439 1439 1439 1438 1437 1436 1435 1434 1433 1432 1431 1431 1431 1431 1431 1432 1434 1435 1437 1438 1440 1442 1444 1446 1448 1450 1452 1454 1455 1456 1457 1458 1459 1459 1459 1459 1459 1458 1457 1456 1456
1436 1437 1437 1437 1437 1436 1435 1434 1433 1431 1430 1429 1429 1428 1428 1428 1428 1429 1430 1431 1433 1435 1437 1439 1441 1443 1446 1448 1450 1452 1453 1455 1456 1457 1458 1458 1458 1458 1458 1457 1457 1456 1455 1454
1434 1435 1435 1435 1434 1433 1432 1430 1429 1428 1427 1426 1425 1425 1425 1425 1425 1426 1428 1429 1431 1433 1435 1437 1440 1442 1445 1447 1449 1451 1453 1454 1455 1456 1457 1457 1457 1457 1457 1456 1455 1454 1453 1452
1432 1432 1432 1432 1431 1430 1429 1427 1426 1424 1423 1423 1422 1422 1422 1422 1423 1424 1425 1427 1428 1430 1432 1435 1438 1440 1443 1446 1448 1450 1452 1453 1454 1455 1455 1456 1456 1455 1455 1454 1453 1452 1451 1449
1430 1430 1429 1429 1428 1427 1425 1424 1422 1421 1420 1419 1419 1419 1419 1419 1420 1421 1422 1424 1426 1428 1431 1433 1436 1438 1441 1444 1446 1448 1450 1451 1452 1453 1454 1454 1453 1453 1453 1452 1451 1449 1448 1447
1428 1428 1427 1426 1425 1423 1422 1420 1419 1418 1417 1416 1416 1416 1416 1417 1417 1418 1420 1421 1423 1425 1428 1430 1433 1436 1439 1441 1444 1446 1448 1449 1450 1451 1451 1451 1451 1451 1450 1449 1448 1447 1445 1444
1425 1425 1424 1423 1422 1420 1419 1417 1415 1415 1414 1413 1413 1413 1413 1414 1415 1416 1417 1419 1420 1422 1425 1428 1430 1433 1436 1439 1441 1443 1445 1446 1447 1448 1448 1448 1448 1448 1447 1446 1445 1444 1442 1441
1424 1423 1422 1421 1419 1418 1416 1414 1413 1412 1411 1411 1410 1410 1411 1411 1412 1413 1414 1416 1417 1420 1422 1425 1427 1430 1433 1436 1438 1440 1442 1444 1445 1445 1445 1445 1445 1445 1444 1443 1442 1441 1439 1438
1422 1421 1420 1419 1417 1416 1414 1412 1411 1410 1409 1408 1408 1408 1409 1409 1410 1411 1411 1413 1415 1417 1420 1422 1424 1427 1430 1433 1435 1437 1439 1440 1441 1442 1442 1442 1442 1441 1441 1440 1438 1437 1436 1434
1421 1420 1419 1417 1416 1414 1412 1411 1409 1408 1407 1406 1406 1406 1406 1407 1407 1408 1409 1411 1413 1414 1416 1419 1421 1424 1427 1430 1432 1434 1436 1437 1438 1439 1439 1439 1439 1438 1437 1436 1435 1434 1432 1431
1420 1419 1417 1416 1414 1413 1411 1410 1408 1407 1406 1405 1405 1404 1404 1405 1405 1406 1407 1409 1410 1412 1414 1416 1419 1421 1424 1427 1429 1431 1432 1434 1435 1435 1436 1436 1435 1435 1434 1433 1431 1430 1429 1427
1419 1417 1416 1415 1413 1412 1410 1409 1408 1406 1405 1404 1404 1403 1403 1403 1403 1404 1405 1406 1407 1409 1411 1413 1416 1419 1421 1423 1425 1427 1429 1430 1431 1432 1432 1432 1432 1431 1430 1429 1428 1427 1425 1423
1418 1416 1415 1414 1412 1411 1409 1408 1406 1405 1404 1403 1402 1402 1401 1401 1401 1402 1403 1404 1405 1407 1409 1411 1413 1416 1418 1420 1422 1424 1426 1427 1428 1428 1428 1428 1428 1427 1426 1425 1424 1423 1421 1419
1416 1415 1413 1412 1410 1409 1408 1406 1405 1404 1402 1401 1401 1400 1400 1399 1399 1400 1400 1401 1403 1404 1406 1408 1410 1413 1415 1417 1419 1421 1422 1424 1424 1425 1425 1425 1424 1423 1423 1422 1420 1419 1417 1416
1414 1413 1412 1410 1409 1407 1406 1404 1403 1402 1401 1400 1399 1398 1397 1397 1397 1397 1398 1399 1400 1402 1403 1405 1407 1410 1412 1414 1416 1417 1419 1420 1420 1421 1421 1421 1420 1420 1419 1418 1417 1415 1414 1412